Vorticity
7 8 8 8 7 7 7 7 7 7 7 7 7 8 8 8 7 6 6 6 6 5 5 5 5 5 6 6 6 6 6 6 7 7 7 7 7 8 8 7 7 7 7 7 7 8 7 7 7 7 7 6
8 8 8 7 7 7 7 7 7 7 7 7 8 7 7 6 6 6 5 5 5 5 5 6 6 6 7 7 6 6 7 7 7 7 7 7 7 7 6 6 6 6 6 7 7 7 8 8 7 7 6 6
8 8 8 8 7 7 7 7 7 7 8 8 8 7 7 6 6 6 6 6 6 6 6 6 6 6 6 6 6 7 7 7 7 6 6 6 5 5 5 5 6 7 7 7 8 8 8 8 7 6 6 6
9 8 8 8 7 7 7 7 8 8 9 9 8 7 6 6 6 6 6 6 7 7 7 7 6 6 6 6 7 7 6 6 5 5 5 5 5 5 6 7 7 7 7 7 7 8 7 7 6 6 6 6
8 8 7 8 8 7 7 8 9 9 9 8 7 6 6 6 6 6 6 6 7 7 6 7 6 6 6 6 6 5 4 3 3 3 4 4 5 6 6 7 7 7 7 7 7 7 7 6 6 6 6 6
7 8 8 8 7 7 8 9 9 9 8 7 5 6 6 6 6 6 6 6 6 6 6 6 6 5 5 4 4 3 3 4 4 5 6 7 7 8 8 8 8 8 8 8 8 8 7 7 7 7 7 7
7 7 7 7 7 7 8 9 8 7 5 5 5 5 5 5 6 6 6 6 6 5 5 5 4 4 4 4 4 4 5 6 7 7 7 7 8 8 8 8 8 8 8 8 8 8 7 7 7 7 7 7
6 6 6 6 6 7 8 8 6 5 4 4 5 5 6 6 6 6 6 6 5 5 4 4 4 4 4 4 5 5 6 6 6 7 7 7 7 7 7 7 7 7 7 7 6 6 6 6 6 6 6 6
5 6 6 6 7 8 7 6 5 4 5 5 5 6 6 6 6 5 5 4 4 3 3 3 3 3 4 5 5 5 6 6 6 6 6 7 7 7 7 7 6 6 6 6 6 6 6 6 6 5 5 5
6 6 6 7 7 7 6 5 5 5 5 5 5 5 5 5 4 4 3 3 3 3 3 3 4 4 5 5 5 6 6 6 6 6 6 6 6 6 7 7 7 7 7 7 7 6 6 6 6 6 5 5
6 6 6 7 6 5 4 5 5 5 5 5 5 5 5 4 3 3 3 3 3 3 4 5 5 5 6 6 6 6 6 6 6 6 6 6 7 7 7 8 8 7 7 7 7 6 6 6 6 6 6 5
6 6 6 6 5 5 5 6 5 5 5 5 5 4 4 4 4 3 3 3 4 4 5 6 5 5 6 6 6 6 6 6 6 6 6 7 6 7 7 7 7 7 6 6 7 7 6 6 6 6 5 5
7 7 6 6 6 6 6 6 5 5 5 5 4 4 3 3 3 3 3 4 4 5 5 5 5 6 6 6 6 6 7 6 6 7 6 6 6 5 6 5 6 6 5 5 6 7 7 6 6 6 5 5
8 6 5 6 6 6 5 5 4 4 4 4 3 3 3 3 3 3 4 5 5 5 5 5 5 6 6 6 6 6 7 7 6 6 5 5 4 5 5 5 6 6 6 4 4 6 6 6 6 6 6 6
6 4 5 6 5 4 4 4 4 3 3 4 3 3 3 3 4 4 5 5 5 5 5 6 6 6 6 6 7 7 7 7 6 5 5 4 4 5 6 6 6 6 6 4 3 4 5 5 5 5 6 7
3 4 5 5 5 4 4 4 4 3 4 4 3 4 4 4 5 5 5 5 6 6 6 6 6 6 7 8 8 7 7 6 5 5 4 5 6 6 6 6 4 4 6 5 4 3 4 5 5 6 6 6
5 5 5 4 4 3 4 5 4 4 4 4 4 5 4 5 5 5 6 6 6 6 6 6 6 7 8 8 8 7 6 5 5 4 5 5 6 6 5 5 4 4 5 5 5 4 4 5 5 6 6 6
5 4 4 4 4 4 5 6 5 4 5 5 5 5 5 5 6 6 6 6 6 6 6 7 7 8 8 7 6 6 5 4 4 4 5 5 4 4 4 4 4 3 4 5 6 5 6 6 6 7 6 6
4 3 4 5 5 6 7 6 5 5 6 6 5 5 6 6 6 6 6 5 6 6 7 8 8 7 7 6 5 5 4 3 4 4 4 4 4 3 3 3 3 4 5 6 7 7 7 7 7 8 7 7
4 4 5 6 6 7 7 6 6 5 6 6 5 6 6 6 6 6 5 5 6 7 8 8 7 7 6 5 4 3 3 3 4 4 3 3 3 3 3 4 4 5 5 5 6 7 7 7 8 8 8 8
4 5 6 6 6 6 6 6 6 6 6 6 5 6 6 6 6 5 5 6 7 8 9 8 6 6 5 3 3 3 3 3 3 3 3 3 3 3 3 5 6 6 6 6 6 7 7 7 7 8 7 8
5 5 6 5 5 6 6 5 6 6 6 6 6 6 6 6 5 5 6 7 8 8 8 7 6 5 4 3 2 3 4 3 3 3 4 3 3 4 5 5 6 6 7 7 7 7 7 7 7 7 6 7
5 5 5 5 6 6 5 5 6 6 5 6 6 6 6 5 5 6 8 8 8 8 8 7 6 4 4 4 4 4 4 4 4 3 3 2 3 5 5 6 6 7 7 6 7 6 6 6 6 6 6 6
5 5 5 6 7 6 6 6 6 6 6 6 6 6 5 5 6 8 8 8 8 7 7 6 6 5 6 7 5 5 4 4 3 2 2 3 4 5 5 7 7 7 6 5 5 4 4 4 4 4 4 5
5 5 5 6 6 7 7 7 7 7 6 6 6 5 5 6 7 8 8 8 8 7 7 6 6 7 7 6 4 3 3 2 2 2 3 4 5 5 5 7 7 6 5 4 4 3 2 3 4 4 5 5
6 5 5 6 6 7 8 7 7 7 7 6 6 5 5 7 7 8 8 8 8 8 7 6 6 6 4 3 2 2 2 2 2 3 4 5 6 6 6 6 6 5 5 4 4 1 1 2 3 3 6 6
6 6 5 6 6 8 9 8 7 8 8 6 5 5 5 7 8 8 8 8 8 8 8 7 5 4 2 3 3 3 2 2 3 4 6 6 6 6 6 5 4 4 4 4 3 2 2 2 1 2 4 4
5 6 6 6 7 8 9 8 8 8 7 5 4 5 6 8 9 9 8 8 9 8 8 6 4 3 3 4 3 3 2 3 4 5 6 6 6 5 5 5 4 5 4 4 3 3 4 3 2 3 4 3
5 5 6 7 7 8 8 9 8 8 7 5 4 5 7 10 10 9 9 8 8 8 7 5 4 4 5 4 3 3 2 3 4 6 6 5 5 5 5 5 5 6 6 4 4 5 5 3 3 4 5 4
5 5 6 6 7 7 8 9 8 7 6 5 5 7 10 12 11 10 9 8 7 7 6 5 6 6 5 4 2 3 3 4 6 6 6 5 4 5 5 5 6 7 6 5 5 5 4 4 5 5 6 6
7 7 7 6 7 7 7 8 8 6 4 5 6 9 12 11 10 9 7 7 6 6 6 6 7 6 5 3 3 3 5 6 6 5 4 3 4 5 5 6 6 7 6 5 6 6 5 5 6 7 7 7
Height
5810 5809 5807 5806 5805 5803 5802 5801 5800 5798 5797 5796 5794 5792 5791 5789 5788 5786 5785 5784 5783 5781 5780 5778 5777 5775 5774 5772 5771 5769 5768 5766 5764 5763 5761 5760 5758 5757 5755 5753 5752 5750 5748 5746 5744 5742 5740 5739 5737 5735 5733 5731
5808 5807 5805 5804 5803 5802 5800 5799 5797 5796 5794 5793 5791 5790 5788 5787 5785 5784 5783 5781 5780 5778 5777 5775 5774 5772 5770 5769 5767 5766 5764 5762 5761 5759 5758 5756 5754 5753 5751 5749 5747 5745 5743 5741 5739 5737 5735 5734 5732 5730 5728 5727
5807 5805 5804 5802 5801 5799 5798 5796 5795 5793 5792 5790 5789 5787 5786 5784 5783 5781 5780 5778 5777 5775 5774 5772 5770 5769 5767 5765 5764 5762 5760 5759 5757 5755 5754 5752 5750 5748 5746 5744 5742 5740 5738 5736 5734 5732 5730 5729 5727 5725 5724 5722
5805 5803 5801 5800 5799 5797 5795 5794 5792 5791 5789 5788 5786 5785 5783 5781 5780 5778 5777 5775 5773 5772 5770 5768 5767 5765 5763 5762 5760 5759 5757 5755 5753 5751 5749 5747 5745 5743 5741 5739 5737 5735 5733 5732 5730 5728 5726 5724 5723 5721 5719 5717
5802 5800 5799 5797 5796 5794 5793 5791 5789 5788 5786 5785 5783 5782 5780 5778 5776 5775 5773 5772 5770 5768 5767 5765 5763 5762 5760 5758 5756 5754 5753 5751 5748 5746 5744 5742 5740 5738 5736 5735 5733 5731 5729 5727 5726 5724 5722 5720 5718 5716 5714 5713
5799 5798 5796 5795 5793 5792 5790 5788 5787 5785 5784 5782 5780 5778 5776 5775 5773 5771 5770 5768 5766 5765 5763 5762 5760 5758 5756 5754 5752 5750 5748 5746 5744 5742 5740 5738 5736 5734 5733 5731 5729 5727 5725 5723 5721 5719 5718 5716 5714 5712 5710 5708
5797 5795 5793 5792 5790 5789 5787 5786 5784 5782 5780 5779 5777 5775 5773 5771 5770 5768 5766 5765 5763 5761 5760 5758 5756 5754 5753 5750 5748 5746 5744 5742 5740 5738 5736 5734 5732 5730 5728 5726 5724 5722 5720 5718 5716 5714 5712 5710 5709 5707 5705 5703
5794 5792 5790 5789 5787 5786 5784 5783 5781 5779 5777 5775 5774 5772 5770 5768 5767 5765 5763 5761 5760 5758 5756 5754 5752 5750 5748 5746 5743 5741 5739 5737 5735 5733 5731 5729 5727 5724 5722 5720 5718 5716 5714 5712 5710 5708 5706 5705 5703 5701 5699 5697
5791 5789 5787 5786 5784 5783 5782 5780 5778 5776 5774 5772 5770 5768 5767 5765 5763 5761 5759 5757 5755 5754 5752 5750 5747 5745 5743 5741 5738 5736 5734 5732 5730 5728 5726 5724 5722 5719 5717 5715 5713 5711 5709 5707 5705 5703 5701 5699 5697 5695 5693 5691
5788 5786 5785 5783 5782 5780 5778 5776 5775 5773 5771 5769 5767 5765 5763 5761 5759 5757 5755 5753 5751 5749 5747 5745 5743 5740 5738 5736 5734 5732 5730 5728 5725 5723 5721 5719 5717 5715 5713 5710 5708 5706 5704 5702 5700 5697 5696 5693 5691 5689 5687 5685
5785 5783 5782 5780 5778 5777 5775 5773 5771 5769 5767 5766 5764 5762 5760 5758 5756 5754 5752 5750 5748 5745 5743 5741 5738 5736 5734 5732 5730 5727 5725 5723 5721 5719 5716 5714 5712 5710 5708 5706 5704 5702 5699 5697 5694 5692 5690 5688 5686 5683 5681 5679
5782 5781 5779 5777 5775 5774 5772 5770 5768 5766 5764 5762 5760 5758 5756 5754 5752 5750 5748 5745 5743 5741 5738 5736 5734 5732 5729 5727 5725 5723 5720 5718 5716 5714 5711 5709 5707 5705 5703 5701 5699 5696 5694 5692 5689 5687 5684 5682 5680 5678 5675 5673
5780 5778 5776 5774 5773 5771 5769 5767 5765 5763 5761 5759 5757 5755 5752 5750 5748 5746 5743 5741 5739 5736 5734 5731 5729 5727 5724 5722 5720 5717 5715 5713 5710 5708 5706 5704 5702 5700 5697 5695 5693 5691 5688 5686 5684 5681 5679 5676 5674 5672 5669 5667
5777 5776 5774 5772 5770 5768 5766 5764 5762 5760 5758 5756 5753 5751 5749 5746 5744 5742 5739 5736 5734 5731 5729 5727 5724 5722 5719 5717 5715 5712 5710 5708 5705 5703 5701 5699 5697 5694 5692 5690 5687 5685 5682 5680 5677 5675 5673 5670 5668 5665 5663 5661
5775 5774 5772 5770 5767 5765 5763 5761 5759 5757 5755 5752 5750 5747 5745 5743 5740 5738 5735 5732 5730 5727 5725 5722 5720 5717 5715 5712 5710 5707 5705 5703 5700 5698 5696 5693 5691 5689 5686 5684 5681 5679 5676 5673 5671 5669 5666 5664 5662 5659 5657 5654
5773 5771 5769 5767 5764 5762 5760 5758 5756 5754 5751 5749 5746 5744 5741 5739 5736 5733 5731 5728 5725 5723 5720 5718 5715 5712 5710 5707 5705 5702 5700 5698 5695 5693 5690 5688 5686 5683 5681 5678 5675 5673 5670 5667 5664 5662 5659 5657 5655 5652 5650 5647
5770 5768 5766 5764 5762 5760 5758 5756 5754 5751 5748 5746 5743 5740 5738 5735 5732 5729 5726 5724 5721 5718 5716 5713 5710 5707 5705 5703 5700 5697 5695 5693 5690 5688 5685 5683 5680 5677 5675 5672 5669 5667 5664 5661 5659 5655 5653 5651 5648 5646 5643 5640
5768 5766 5764 5762 5760 5758 5755 5753 5750 5748 5745 5743 5739 5737 5734 5731 5728 5725 5722 5719 5716 5714 5711 5708 5705 5702 5700 5698 5695 5692 5690 5688 5685 5682 5680 5677 5674 5672 5669 5667 5664 5661 5658 5655 5652 5649 5647 5644 5641 5639 5637 5634
5765 5763 5761 5759 5757 5755 5752 5750 5747 5744 5742 5739 5736 5733 5730 5727 5724 5721 5718 5715 5712 5709 5706 5703 5700 5697 5695 5692 5690 5687 5685 5683 5680 5677 5675 5672 5669 5666 5663 5661 5658 5655 5652 5649 5646 5643 5640 5637 5634 5632 5629 5626
5762 5760 5758 5756 5753 5751 5749 5746 5743 5740 5738 5735 5731 5729 5726 5723 5720 5716 5713 5710 5708 5705 5701 5698 5695 5692 5690 5687 5685 5682 5679 5677 5674 5672 5669 5666 5663 5660 5657 5654 5651 5648 5645 5643 5639 5636 5633 5630 5627 5625 5622 5619
5759 5756 5754 5752 5749 5747 5745 5742 5739 5736 5734 5730 5727 5724 5721 5718 5715 5712 5709 5706 5703 5700 5697 5694 5691 5688 5685 5682 5680 5677 5674 5671 5668 5665 5663 5659 5656 5654 5651 5647 5644 5641 5638 5635 5633 5629 5626 5622 5620 5617 5614 5612
5755 5752 5750 5748 5745 5743 5740 5737 5735 5732 5729 5726 5722 5719 5716 5713 5710 5707 5704 5701 5698 5695 5692 5689 5686 5683 5680 5677 5674 5671 5668 5665 5662 5659 5656 5652 5649 5646 5644 5640 5637 5634 5631 5628 5626 5622 5618 5615 5612 5610 5606 5604
5751 5748 5746 5743 5741 5739 5736 5733 5730 5727 5724 5720 5717 5714 5711 5708 5705 5702 5699 5696 5693 5690 5687 5684 5680 5677 5674 5671 5669 5666 5662 5658 5655 5652 5648 5645 5641 5638 5635 5632 5629 5626 5623 5621 5618 5615 5611 5607 5604 5601 5598 5595
5747 5744 5741 5739 5737 5734 5731 5728 5725 5722 5719 5715 5712 5709 5705 5702 5699 5697 5694 5690 5687 5684 5681 5678 5675 5672 5668 5665 5662 5659 5656 5652 5648 5644 5641 5637 5634 5630 5627 5624 5621 5618 5616 5613 5611 5607 5603 5600 5596 5593 5589 5586
5743 5740 5737 5735 5732 5729 5726 5723 5720 5717 5714 5710 5707 5703 5699 5697 5694 5691 5688 5684 5681 5678 5675 5672 5668 5665 5662 5658 5655 5652 5648 5644 5640 5637 5633 5629 5626 5623 5619 5616 5612 5609 5607 5605 5603 5599 5596 5593 5588 5584 5580 5578
5738 5736 5733 5730 5727 5724 5721 5718 5715 5712 5708 5705 5701 5697 5694 5691 5688 5685 5682 5678 5674 5671 5668 5665 5662 5659 5655 5651 5648 5645 5641 5637 5633 5629 5625 5622 5619 5615 5611 5608 5604 5600 5597 5596 5593 5590 5588 5586 5582 5576 5571 5568
5734 5731 5728 5725 5722 5719 5716 5713 5710 5707 5703 5699 5695 5692 5689 5685 5682 5679 5675 5672 5668 5665 5661 5658 5655 5652 5648 5644 5641 5638 5634 5630 5625 5621 5618 5614 5611 5607 5604 5601 5596 5591 5587 5585 5582 5578 5577 5577 5574 5572 5567 5561
5729 5726 5724 5720 5717 5714 5711 5708 5704 5701 5698 5693 5690 5687 5683 5679 5676 5672 5669 5665 5661 5658 5655 5651 5648 5645 5641 5637 5633 5630 5626 5622 5617 5613 5610 5606 5603 5599 5596 5593 5589 5584 5578 5574 5570 5566 5565 5563 5561 5562 5561 5557
5725 5722 5719 5715 5712 5709 5706 5703 5699 5696 5692 5688 5685 5681 5676 5673 5669 5666 5662 5658 5655 5652 5648 5645 5641 5637 5633 5629 5625 5622 5618 5614 5609 5605 5601 5598 5594 5591 5587 5584 5580 5576 5570 5564 5560 5555 5552 5550 5548 5549 5548 5545
5720 5717 5714 5710 5707 5704 5700 5698 5694 5690 5686 5682 5679 5675 5670 5666 5662 5659 5655 5651 5648 5645 5641 5637 5633 5629 5625 5621 5617 5613 5609 5605 5601 5597 5593 5589 5585 5581 5577 5574 5571 5568 5561 5555 5551 5546 5541 5537 5533 5534 5534 5530
5715 5712 5708 5705 5702 5698 5695 5692 5689 5684 5680 5676 5673 5668 5664 5660 5655 5652 5648 5644 5641 5637 5633 5629 5625 5621 5617 5613 5608 5604 5600 5596 5592 5588 5584 5579 5575 5571 5567 5563 5561 5558 5552 5546 5542 5536 5530 5526 5521 5517 5517 5514